Time,TemperatureF,DewpointF,PressureIn,WindDirection,WindDirectionDegrees,WindSpeedMPH,WindSpeedGustMPH,Humidity,HourlyPrecipIn,Conditions,Clouds,dailyrainin,SolarRadiationWatts/m^2,SoftwareType,DateUTC
2013-08-26 00:01:00,61.9,58.3,30.27,NE,54,0.0,0.0,88,0.00,,CLR,0.01,0.00,VWS V14.01,2013-08-26 04:01:00,
2013-08-26 00:02:00,61.9,58.3,30.27,NE,54,0.0,0.0,88,0.00,,CLR,0.01,0.00,VWS V14.01,2013-08-26 04:02:00,
2013-08-26 00:07:00,61.7,58.1,30.27,NE,54,0.0,0.0,88,0.00,,CLR,0.00,0.00,VWS V14.01,2013-08-26 04:07:00,
2013-08-26 00:12:00,61.7,58.1,30.27,NE,54,0.0,0.0,88,0.00,,CLR,0.00,0.00,VWS V14.01,2013-08-26 04:12:00,
2013-08-26 00:17:00,61.6,58.0,30.26,NE,54,0.0,0.0,88,0.00,,CLR,0.00,0.00,VWS V14.01,2013-08-26 04:17:00,
2013-08-26 00:22:00,61.4,57.8,30.26,SSW,212,0.0,0.0,88,0.00,,CLR,0.00,0.00,VWS V14.01,2013-08-26 04:22:00,
2013-08-26 00:28:00,61.4,57.8,30.26,SSW,212,0.0,0.0,88,0.00,,CLR,0.00,0.00,VWS V14.01,2013-08-26 04:28:00,
2013-08-26 00:33:00,61.3,58.0,30.26,SSW,212,0.0,0.0,89,0.00,,CLR,0.00,0.00,VWS V14.01,2013-08-26 04:33:00,
2013-08-26 00:38:00,61.1,57.8,30.26,SSW,212,0.0,0.0,89,0.00,,CLR,0.00,0.00,VWS V14.01,2013-08-26 04:38:00,
2013-08-26 00:43:00,61.1,57.8,30.26,SSW,212,0.0,0.0,89,0.00,,CLR,0.00,0.00,VWS V14.01,2013-08-26 04:43:00,
2013-08-26 00:48:00,61.1,57.8,30.25,WSW,251,0.0,2.0,89,0.00,,CLR,0.00,0.00,VWS V14.01,2013-08-26 04:48:00,
2013-08-26 00:53:00,61.1,57.8,30.25,SW,226,2.0,3.0,89,0.00,,CLR,0.00,0.00,VWS V14.01,2013-08-26 04:53:00,
2013-08-26 00:58:00,61.1,57.8,30.25,WSW,257,0.0,3.0,89,0.00,,CLR,0.00,0.00,VWS V14.01,2013-08-26 04:58:00,
2013-08-26 01:03:00,61.1,57.8,30.26,SW,220,0.0,3.0,89,0.00,,CLR,0.00,0.00,VWS V14.01,2013-08-26 05:03:00,
2013-08-26 01:08:00,61.0,57.7,30.26,WSW,244,0.0,2.0,89,0.00,,CLR,0.00,0.00,VWS V14.01,2013-08-26 05:08:00,
2013-08-26 01:13:00,61.1,57.8,30.26,SW,219,0.0,3.0,89,0.00,,CLR,0.00,0.00,VWS V14.01,2013-08-26 05:13:00,
2013-08-26 01:18:00,61.1,57.5,30.25,SW,222,0.0,3.0,88,0.00,,CLR,0.00,0.00,VWS V14.01,2013-08-26 05:18:00,
2013-08-26 01:23:00,61.1,57.5,30.25,SW,222,0.0,0.0,88,0.00,,CLR,0.00,0.00,VWS V14.01,2013-08-26 05:23:00,
2013-08-26 01:28:00,61.0,57.4,30.25,SW,222,0.0,0.0,88,0.00,,CLR,0.00,0.00,VWS V14.01,2013-08-26 05:28:00,
2013-08-26 01:34:00,61.0,57.4,30.25,SW,222,0.0,0.0,88,0.00,,CLR,0.00,0.00,VWS V14.01,2013-08-26 05:34:00,
2013-08-26 01:39:00,60.8,57.2,30.25,SW,222,0.0,0.0,88,0.00,,CLR,0.00,0.00,VWS V14.01,2013-08-26 05:39:00,
2013-08-26 01:44:00,60.6,57.0,30.25,SW,222,0.0,0.0,88,0.00,,CLR,0.00,0.00,VWS V14.01,2013-08-26 05:44:00,
2013-08-26 01:49:00,60.5,56.9,30.24,SW,222,0.0,0.0,88,0.00,,CLR,0.00,0.00,VWS V14.01,2013-08-26 05:49:00,
2013-08-26 01:54:00,60.3,57.0,30.24,SW,222,0.0,0.0,89,0.00,,CLR,0.00,0.00,VWS V14.01,2013-08-26 05:54:00,
2013-08-26 01:59:00,60.2,57.0,30.24,SW,222,0.0,0.0,89,0.00,,CLR,0.00,0.00,VWS V14.01,2013-08-26 05:59:00,
2013-08-26 02:04:00,60.2,57.3,30.24,SW,222,0.0,0.0,90,0.00,,CLR,0.00,0.00,VWS V14.01,2013-08-26 06:04:00,
2013-08-26 02:09:00,60.0,57.1,30.24,SW,222,0.0,0.0,90,0.00,,CLR,0.00,0.00,VWS V14.01,2013-08-26 06:09:00,
2013-08-26 02:14:00,60.0,57.1,30.24,SW,222,0.0,0.0,90,0.00,,CLR,0.00,0.00,VWS V14.01,2013-08-26 06:14:00,
2013-08-26 02:19:00,60.0,57.4,30.24,SW,222,0.0,0.0,91,0.00,,CLR,0.00,0.00,VWS V14.01,2013-08-26 06:19:00,
2013-08-26 02:24:00,59.9,57.3,30.24,SW,222,0.0,0.0,91,0.00,,CLR,0.00,0.00,VWS V14.01,2013-08-26 06:24:00,
2013-08-26 02:29:00,59.7,57.1,30.24,SW,222,0.0,0.0,91,0.00,,CLR,0.00,0.00,VWS V14.01,2013-08-26 06:29:00,
2013-08-26 02:34:00,59.5,56.9,30.23,SW,222,0.0,0.0,91,0.00,,CLR,0.00,0.00,VWS V14.01,2013-08-26 06:34:00,
2013-08-26 02:40:00,59.4,56.8,30.23,SW,222,0.0,0.0,91,0.00,,CLR,0.00,0.00,VWS V14.01,2013-08-26 06:40:00,
2013-08-26 02:45:00,59.4,57.1,30.23,SW,222,0.0,0.0,92,0.00,,CLR,0.00,0.00,VWS V14.01,2013-08-26 06:45:00,
2013-08-26 02:50:00,59.4,57.1,30.23,SW,222,0.0,0.0,92,0.00,,CLR,0.00,0.00,VWS V14.01,2013-08-26 06:50:00,
2013-08-26 02:55:00,59.4,57.1,30.23,SW,222,0.0,0.0,92,0.00,,CLR,0.00,0.00,VWS V14.01,2013-08-26 06:55:00,
2013-08-26 03:00:00,59.2,56.9,30.23,SW,222,0.0,0.0,92,0.00,,CLR,0.00,0.00,VWS V14.01,2013-08-26 07:00:00,
2013-08-26 03:05:00,59.1,56.8,30.23,SW,222,0.0,0.0,92,0.00,,,0.00,0.00,VWS V14.01,2013-08-26 07:05:00,
2013-08-26 03:10:00,59.1,56.8,30.23,SW,222,0.0,0.0,92,0.00,,,0.00,0.00,VWS V14.01,2013-08-26 07:10:00,
2013-08-26 03:15:00,58.9,56.6,30.23,SW,222,0.0,0.0,92,0.00,,,0.00,0.00,VWS V14.01,2013-08-26 07:15:00,
2013-08-26 03:20:00,58.8,56.5,30.23,SW,222,0.0,0.0,92,0.00,,,0.00,0.00,VWS V14.01,2013-08-26 07:20:00,
2013-08-26 03:25:00,58.6,56.3,30.23,SW,222,0.0,0.0,92,0.00,,,0.00,0.00,VWS V14.01,2013-08-26 07:25:00,
2013-08-26 03:30:00,58.5,56.5,30.23,SW,222,0.0,0.0,93,0.00,,,0.00,0.00,VWS V14.01,2013-08-26 07:30:00,
2013-08-26 03:35:00,58.5,56.5,30.24,SW,222,0.0,0.0,93,0.00,,,0.00,0.00,VWS V14.01,2013-08-26 07:35:00,
2013-08-26 03:40:00,58.3,56.3,30.24,SW,222,0.0,0.0,93,0.00,,,0.00,0.00,VWS V14.01,2013-08-26 07:40:00,
2013-08-26 03:46:00,58.3,56.3,30.24,SW,222,0.0,0.0,93,0.00,,,0.00,0.00,VWS V14.01,2013-08-26 07:46:00,
2013-08-26 03:51:00,58.2,56.2,30.24,SW,222,0.0,0.0,93,0.00,,,0.00,0.00,VWS V14.01,2013-08-26 07:51:00,
2013-08-26 03:56:00,58.2,56.2,30.24,SW,222,0.0,0.0,93,0.00,,,0.00,0.00,VWS V14.01,2013-08-26 07:56:00,
2013-08-26 04:01:00,58.0,56.0,30.24,SW,222,0.0,0.0,93,0.00,,,0.00,0.00,VWS V14.01,2013-08-26 08:01:00,
2013-08-26 04:06:00,58.0,56.0,30.24,SW,222,0.0,0.0,93,0.00,,,0.00,0.00,VWS V14.01,2013-08-26 08:06:00,
2013-08-26 04:11:00,58.0,56.3,30.24,SW,222,0.0,0.0,94,0.00,,,0.00,0.00,VWS V14.01,2013-08-26 08:11:00,
2013-08-26 04:16:00,58.0,56.3,30.24,SW,222,0.0,0.0,94,0.00,,,0.00,0.00,VWS V14.01,2013-08-26 08:16:00,
2013-08-26 04:21:00,58.0,56.3,30.23,SW,222,0.0,0.0,94,0.00,,,0.00,0.00,VWS V14.01,2013-08-26 08:21:00,
2013-08-26 04:26:00,58.0,56.3,30.23,SW,222,0.0,0.0,94,0.00,,,0.00,0.00,VWS V14.01,2013-08-26 08:26:00,
2013-08-26 04:31:00,57.9,56.2,30.23,SW,222,0.0,0.0,94,0.00,,,0.00,0.00,VWS V14.01,2013-08-26 08:31:00,
2013-08-26 04:36:00,57.9,56.2,30.23,SW,222,0.0,0.0,94,0.00,,,0.00,0.00,VWS V14.01,2013-08-26 08:36:00,
2013-08-26 04:41:00,57.9,56.2,30.23,SW,222,0.0,0.0,94,0.00,,,0.00,0.00,VWS V14.01,2013-08-26 08:41:00,
2013-08-26 04:46:00,57.7,56.0,30.23,SW,222,0.0,0.0,94,0.00,,,0.00,0.00,VWS V14.01,2013-08-26 08:46:00,
2013-08-26 04:52:00,57.7,56.0,30.22,SW,222,0.0,0.0,94,0.00,,,0.00,0.00,VWS V14.01,2013-08-26 08:52:00,
2013-08-26 04:57:00,57.6,55.9,30.22,SW,222,0.0,0.0,94,0.00,,,0.00,0.00,VWS V14.01,2013-08-26 08:57:00,
2013-08-26 05:02:00,57.4,55.7,30.22,SW,222,0.0,0.0,94,0.00,,,0.00,0.00,VWS V14.01,2013-08-26 09:02:00,
2013-08-26 05:07:00,57.4,55.7,30.22,SW,222,0.0,0.0,94,0.00,,,0.00,0.00,VWS V14.01,2013-08-26 09:07:00,
2013-08-26 05:12:00,57.3,55.6,30.22,SW,222,0.0,0.0,94,0.00,,,0.00,0.00,VWS V14.01,2013-08-26 09:12:00,
2013-08-26 05:17:00,57.1,55.4,30.22,SW,222,0.0,0.0,94,0.00,,,0.00,0.00,VWS V14.01,2013-08-26 09:17:00,
2013-08-26 05:22:00,57.3,55.9,30.21,SW,222,0.0,0.0,95,0.00,,,0.00,0.00,VWS V14.01,2013-08-26 09:22:00,
2013-08-26 05:27:00,57.4,56.0,30.21,SW,222,0.0,0.0,95,0.00,,,0.00,0.00,VWS V14.01,2013-08-26 09:27:00,
2013-08-26 05:32:00,57.4,56.0,30.22,SW,222,0.0,0.0,95,0.00,,,0.00,0.00,VWS V14.01,2013-08-26 09:32:00,
2013-08-26 05:37:00,57.3,55.9,30.22,SW,222,0.0,0.0,95,0.00,,,0.00,0.00,VWS V14.01,2013-08-26 09:37:00,
2013-08-26 05:42:00,57.4,56.0,30.22,SW,219,0.0,2.0,95,0.00,,,0.00,0.00,VWS V14.01,2013-08-26 09:42:00,
2013-08-26 05:47:00,57.4,56.0,30.22,SW,219,0.0,0.0,95,0.00,,,0.00,0.00,VWS V14.01,2013-08-26 09:47:00,
2013-08-26 05:52:00,57.3,55.9,30.22,SW,219,0.0,1.0,95,0.00,,,0.00,0.00,VWS V14.01,2013-08-26 09:52:00,
2013-08-26 05:58:00,57.1,55.7,30.22,SW,219,0.0,0.0,95,0.00,,,0.00,0.00,VWS V14.01,2013-08-26 09:58:00,
2013-08-26 06:03:00,57.0,55.6,30.22,SW,219,0.0,0.0,95,0.00,,,0.00,0.00,VWS V14.01,2013-08-26 10:03:00,
2013-08-26 06:08:00,56.8,55.1,30.22,SW,219,0.0,0.0,94,0.00,,,0.00,0.00,VWS V14.01,2013-08-26 10:08:00,
2013-08-26 06:13:00,56.6,55.2,30.22,SW,219,0.0,0.0,95,0.00,,,0.00,0.00,VWS V14.01,2013-08-26 10:13:00,
2013-08-26 06:18:00,56.5,55.1,30.22,SW,219,0.0,0.0,95,0.00,,,0.00,0.00,VWS V14.01,2013-08-26 10:18:00,
2013-08-26 06:23:00,56.5,55.1,30.22,SW,219,0.0,0.0,95,0.00,,,0.00,0.00,VWS V14.01,2013-08-26 10:23:00,
2013-08-26 06:28:00,56.3,54.9,30.22,SW,219,0.0,0.0,95,0.00,,,0.00,0.00,VWS V14.01,2013-08-26 10:28:00,
2013-08-26 06:33:00,56.3,54.9,30.23,SW,219,0.0,0.0,95,0.00,,,0.00,0.00,VWS V14.01,2013-08-26 10:33:00,
2013-08-26 06:38:00,56.3,54.9,30.23,SW,219,0.0,0.0,95,0.00,,,0.00,5.00,VWS V14.01,2013-08-26 10:38:00,
2013-08-26 06:43:00,56.3,54.9,30.23,SW,219,0.0,0.0,95,0.00,,,0.00,5.00,VWS V14.01,2013-08-26 10:43:00,
2013-08-26 06:48:00,56.3,54.9,30.24,SW,219,0.0,0.0,95,0.00,,,0.00,11.00,VWS V14.01,2013-08-26 10:48:00,
2013-08-26 06:53:00,56.3,54.9,30.24,SW,219,0.0,0.0,95,0.00,,,0.00,12.00,VWS V14.01,2013-08-26 10:53:00,
2013-08-26 06:58:00,56.3,54.9,30.24,SW,219,0.0,0.0,95,0.00,,,0.00,14.00,VWS V14.01,2013-08-26 10:58:00,
2013-08-26 07:04:00,56.3,54.9,30.24,SW,219,0.0,0.0,95,0.00,,,0.00,16.00,VWS V14.01,2013-08-26 11:04:00,
2013-08-26 07:09:00,56.2,55.1,30.24,SW,219,0.0,0.0,96,0.00,,,0.00,18.00,VWS V14.01,2013-08-26 11:09:00,
2013-08-26 07:14:00,56.3,55.2,30.24,SW,219,0.0,0.0,96,0.00,,,0.00,23.00,VWS V14.01,2013-08-26 11:14:00,
2013-08-26 07:19:00,56.3,55.2,30.25,SW,219,0.0,0.0,96,0.00,,,0.00,25.00,VWS V14.01,2013-08-26 11:19:00,
2013-08-26 07:24:00,56.3,55.2,30.25,SW,219,0.0,0.0,96,0.00,,,0.00,26.00,VWS V14.01,2013-08-26 11:24:00,
2013-08-26 07:29:00,56.3,55.2,30.25,SW,219,0.0,0.0,96,0.00,,,0.00,28.00,VWS V14.01,2013-08-26 11:29:00,
2013-08-26 07:34:00,56.5,55.4,30.25,SW,219,0.0,0.0,96,0.00,,,0.00,32.00,VWS V14.01,2013-08-26 11:34:00,
2013-08-26 07:39:00,56.6,55.5,30.25,SW,219,0.0,0.0,96,0.00,,,0.00,33.00,VWS V14.01,2013-08-26 11:39:00,
2013-08-26 07:44:00,56.8,56.0,30.25,SW,219,0.0,0.0,97,0.00,,,0.00,33.00,VWS V14.01,2013-08-26 11:44:00,
2013-08-26 07:49:00,57.0,56.2,30.26,SW,219,0.0,0.0,97,0.00,,,0.00,35.00,VWS V14.01,2013-08-26 11:49:00,
2013-08-26 07:54:00,57.1,56.3,30.26,SW,219,0.0,0.0,97,0.00,,,0.00,37.00,VWS V14.01,2013-08-26 11:54:00,
2013-08-26 07:59:00,57.3,56.5,30.26,SW,219,0.0,0.0,97,0.00,,,0.00,39.00,VWS V14.01,2013-08-26 11:59:00,
2013-08-26 08:04:00,57.6,56.8,30.26,SW,219,0.0,0.0,97,0.00,,,0.00,40.00,VWS V14.01,2013-08-26 12:04:00,
2013-08-26 08:10:00,57.7,56.9,30.26,SW,219,0.0,0.0,97,0.00,,,0.00,42.00,VWS V14.01,2013-08-26 12:10:00,
2013-08-26 08:15:00,58.0,57.2,30.26,SW,219,0.0,0.0,97,0.00,,,0.00,42.00,VWS V14.01,2013-08-26 12:15:00,
2013-08-26 08:20:00,58.3,57.5,30.26,SW,219,0.0,0.0,97,0.00,,,0.00,46.00,VWS V14.01,2013-08-26 12:20:00,
2013-08-26 08:25:00,58.8,58.0,30.26,SW,219,1.0,3.0,97,0.00,,,0.00,46.00,VWS V14.01,2013-08-26 12:25:00,
2013-08-26 08:30:00,59.2,58.3,30.26,WSW,239,0.0,4.0,97,0.00,,,0.00,49.00,VWS V14.01,2013-08-26 12:30:00,
2013-08-26 08:35:00,59.5,58.7,30.25,WSW,241,0.0,0.0,97,0.00,,,0.00,49.00,VWS V14.01,2013-08-26 12:35:00,
2013-08-26 08:40:00,59.9,58.8,30.25,SW,230,0.0,3.0,96,0.00,,,0.00,51.00,VWS V14.01,2013-08-26 12:40:00,
2013-08-26 08:45:00,60.2,59.1,30.25,WSW,241,0.0,1.0,96,0.00,,,0.00,53.00,VWS V14.01,2013-08-26 12:45:00,
2013-08-26 08:50:00,60.5,58.8,30.26,SW,236,0.0,3.0,94,0.00,,,0.00,55.00,VWS V14.01,2013-08-26 12:50:00,
2013-08-26 08:55:00,61.0,58.7,30.26,WSW,240,1.0,4.0,92,0.00,,,0.00,55.00,VWS V14.01,2013-08-26 12:55:00,
2013-08-26 09:00:00,61.6,58.6,30.26,SW,236,1.0,4.0,90,0.00,,,0.00,56.00,VWS V14.01,2013-08-26 13:00:00,
2013-08-26 09:05:00,62.1,58.5,30.25,SW,236,0.0,2.0,88,0.00,,,0.00,60.00,VWS V14.01,2013-08-26 13:05:00,
2013-08-26 09:10:00,62.4,58.2,30.25,WSW,246,0.0,2.0,86,0.00,,,0.00,60.00,VWS V14.01,2013-08-26 13:10:00,
2013-08-26 09:16:00,62.7,57.8,30.25,WSW,246,0.0,0.0,84,0.00,,,0.00,62.00,VWS V14.01,2013-08-26 13:16:00,
2013-08-26 09:21:00,63.2,58.0,30.26,WSW,246,0.0,0.0,83,0.00,,,0.00,62.00,VWS V14.01,2013-08-26 13:21:00,
2013-08-26 09:26:00,63.5,57.9,30.26,WSW,246,0.0,0.0,82,0.00,,,0.00,65.00,VWS V14.01,2013-08-26 13:26:00,
2013-08-26 09:31:00,63.8,57.9,30.26,WSW,246,0.0,0.0,81,0.00,,,0.00,84.00,VWS V14.01,2013-08-26 13:31:00,
2013-08-26 09:36:00,64.3,58.3,30.25,WSW,246,0.0,0.0,81,0.00,,,0.00,79.00,VWS V14.01,2013-08-26 13:36:00,
2013-08-26 09:41:00,64.8,58.8,30.25,WSW,246,0.0,1.0,81,0.00,,,0.00,65.00,VWS V14.01,2013-08-26 13:41:00,
2013-08-26 09:46:00,65.1,58.4,30.25,NW,312,0.0,2.0,79,0.00,,,0.00,74.00,VWS V14.01,2013-08-26 13:46:00,
2013-08-26 09:51:00,65.4,58.0,30.25,NW,312,0.0,2.0,77,0.00,,,0.00,70.00,VWS V14.01,2013-08-26 13:51:00,
2013-08-26 09:56:00,65.9,59.2,30.25,NW,312,0.0,0.0,79,0.00,,,0.00,84.00,VWS V14.01,2013-08-26 13:56:00,
2013-08-26 10:01:00,66.4,59.0,30.25,NW,322,0.0,3.0,77,0.00,,,0.00,70.00,VWS V14.01,2013-08-26 14:01:00,
2013-08-26 10:06:00,66.9,59.1,30.24,NW,322,1.0,1.0,76,0.00,,,0.00,144.00,VWS V14.01,2013-08-26 14:06:00,
2013-08-26 10:11:00,67.3,59.1,30.24,SW,233,4.0,4.0,75,0.00,,,0.00,74.00,VWS V14.01,2013-08-26 14:11:00,
2013-08-26 10:17:00,67.9,60.4,30.24,NW,312,0.0,2.0,77,0.00,,,0.00,91.00,VWS V14.01,2013-08-26 14:17:00,
2013-08-26 10:22:00,68.3,59.3,30.24,NW,306,0.0,2.0,73,0.00,,,0.00,109.00,VWS V14.01,2013-08-26 14:22:00,
2013-08-26 10:27:00,68.6,60.0,30.24,SW,223,3.0,5.0,74,0.00,,,0.00,77.00,VWS V14.01,2013-08-26 14:27:00,
2013-08-26 10:32:00,69.3,60.7,30.24,WSW,248,0.0,5.0,74,0.00,,,0.00,137.00,VWS V14.01,2013-08-26 14:32:00,
2013-08-26 10:37:00,69.8,60.8,30.23,NW,304,1.0,2.0,73,0.00,,,0.00,135.00,VWS V14.01,2013-08-26 14:37:00,
2013-08-26 10:42:00,69.9,60.9,30.23,West,274,0.0,2.0,73,0.00,,,0.00,158.00,VWS V14.01,2013-08-26 14:42:00,
2013-08-26 10:47:00,70.3,60.9,30.23,NNW,329,0.0,2.0,72,0.00,,,0.00,107.00,VWS V14.01,2013-08-26 14:47:00,
2013-08-26 10:52:00,71.0,62.3,30.23,NNW,330,0.0,2.0,74,0.00,,,0.00,245.00,VWS V14.01,2013-08-26 14:52:00,
2013-08-26 10:57:00,71.5,61.6,30.23,WNW,292,0.0,3.0,71,0.00,,,0.00,672.00,VWS V14.01,2013-08-26 14:57:00,
2013-08-26 11:02:00,72.0,62.1,30.22,West,260,3.0,3.0,71,0.00,,,0.00,628.00,VWS V14.01,2013-08-26 15:02:00,
2013-08-26 11:07:00,72.7,62.4,30.22,West,260,0.0,1.0,70,0.00,,,0.00,728.00,VWS V14.01,2013-08-26 15:07:00,
2013-08-26 11:12:00,73.2,62.0,30.22,NNW,346,0.0,2.0,68,0.00,,,0.00,743.00,VWS V14.01,2013-08-26 15:12:00,
2013-08-26 11:17:00,73.9,62.3,30.22,West,260,1.0,3.0,67,0.00,,,0.00,753.00,VWS V14.01,2013-08-26 15:17:00,
2013-08-26 11:23:00,74.8,62.3,30.22,WSW,243,0.0,3.0,65,0.00,,,0.00,764.00,VWS V14.01,2013-08-26 15:23:00,
2013-08-26 11:28:00,75.7,62.7,30.22,WSW,244,0.0,2.0,64,0.00,,,0.00,774.00,VWS V14.01,2013-08-26 15:28:00,
2013-08-26 11:33:00,76.4,63.3,30.21,SSW,209,0.0,3.0,64,0.00,,,0.00,779.00,VWS V14.01,2013-08-26 15:33:00,
2013-08-26 11:38:00,77.3,63.7,30.21,SW,226,1.0,5.0,63,0.00,,,0.00,781.00,VWS V14.01,2013-08-26 15:38:00,
2013-08-26 11:43:00,77.6,62.2,30.21,SW,219,4.0,9.0,59,0.00,,,0.00,795.00,VWS V14.01,2013-08-26 15:43:00,
2013-08-26 11:48:00,78.0,62.0,30.20,WSW,239,1.0,7.0,58,0.00,,,0.00,801.00,VWS V14.01,2013-08-26 15:48:00,
2013-08-26 11:53:00,78.2,61.7,30.20,SW,217,5.0,7.0,57,0.00,,,0.00,804.00,VWS V14.01,2013-08-26 15:53:00,
2013-08-26 11:58:00,78.8,62.8,30.20,WSW,253,0.0,6.0,58,0.00,,,0.00,809.00,VWS V14.01,2013-08-26 15:58:00,
2013-08-26 12:03:00,79.3,62.3,30.19,WNW,284,0.0,0.0,56,0.00,,,0.00,818.00,VWS V14.01,2013-08-26 16:03:00,
2013-08-26 12:08:00,79.7,60.5,30.19,SSW,209,0.0,5.0,52,0.00,,,0.00,825.00,VWS V14.01,2013-08-26 16:08:00,
2013-08-26 12:13:00,80.1,60.4,30.19,WSW,251,3.0,6.0,51,0.00,,,0.00,827.00,VWS V14.01,2013-08-26 16:13:00,
2013-08-26 12:18:00,80.2,59.9,30.19,SW,227,4.0,7.0,50,0.00,,,0.00,836.00,VWS V14.01,2013-08-26 16:18:00,
2013-08-26 12:23:00,80.2,59.9,30.19,West,281,0.0,0.0,50,0.00,,,0.00,839.00,VWS V14.01,2013-08-26 16:23:00,
2013-08-26 12:29:00,80.6,60.3,30.19,SE,143,0.0,1.0,50,0.00,,,0.00,841.00,VWS V14.01,2013-08-26 16:29:00,
2013-08-26 12:34:00,81.0,60.6,30.18,ESE,121,1.0,2.0,50,0.00,,,0.00,845.00,VWS V14.01,2013-08-26 16:34:00,
2013-08-26 12:39:00,81.4,59.8,30.18,East,92,0.0,2.0,48,0.00,,,0.00,846.00,VWS V14.01,2013-08-26 16:39:00,
2013-08-26 12:44:00,81.6,61.2,30.18,West,281,0.0,0.0,50,0.00,,,0.00,857.00,VWS V14.01,2013-08-26 16:44:00,
2013-08-26 12:49:00,81.8,60.8,30.17,SSW,210,0.0,4.0,49,0.00,,,0.00,855.00,VWS V14.01,2013-08-26 16:49:00,
2013-08-26 12:54:00,81.6,60.6,30.17,North,6,1.0,2.0,49,0.00,,,0.00,857.00,VWS V14.01,2013-08-26 16:54:00,
2013-08-26 12:59:00,81.6,61.2,30.17,WSW,240,0.0,3.0,50,0.00,,,0.00,855.00,VWS V14.01,2013-08-26 16:59:00,
2013-08-26 13:04:00,81.8,60.2,30.17,SSW,208,0.0,0.0,48,0.00,,,0.00,853.00,VWS V14.01,2013-08-26 17:04:00,
2013-08-26 13:09:00,82.2,62.3,30.17,West,264,0.0,6.0,51,0.00,,,0.00,857.00,VWS V14.01,2013-08-26 17:09:00,
2013-08-26 13:14:00,82.4,61.9,30.17,SW,227,1.0,3.0,50,0.00,,,0.00,859.00,VWS V14.01,2013-08-26 17:14:00,
2013-08-26 13:19:00,82.6,63.2,30.16,WSW,243,1.0,3.0,52,0.00,,,0.00,864.00,VWS V14.01,2013-08-26 17:19:00,
2013-08-26 13:24:00,82.6,61.5,30.16,SW,217,0.0,3.0,49,0.00,,,0.00,862.00,VWS V14.01,2013-08-26 17:24:00,
2013-08-26 13:29:00,82.6,60.9,30.16,West,263,0.0,3.0,48,0.00,,,0.00,864.00,VWS V14.01,2013-08-26 17:29:00,
2013-08-26 13:35:00,83.0,61.9,30.15,WSW,248,4.0,6.0,49,0.00,,,0.00,866.00,VWS V14.01,2013-08-26 17:35:00,
2013-08-26 13:40:00,83.0,61.9,30.15,SW,227,1.0,7.0,49,0.00,,,0.00,866.00,VWS V14.01,2013-08-26 17:40:00,
2013-08-26 13:45:00,83.0,60.7,30.15,SW,226,5.0,6.0,47,0.00,,,0.00,862.00,VWS V14.01,2013-08-26 17:45:00,
2013-08-26 13:50:00,83.1,60.8,30.14,South,184,6.0,6.0,47,0.00,,,0.00,859.00,VWS V14.01,2013-08-26 17:50:00,
2013-08-26 13:55:00,83.1,61.4,30.14,NW,318,1.0,2.0,48,0.00,,,0.00,867.00,VWS V14.01,2013-08-26 17:55:00,
2013-08-26 14:00:00,83.3,62.2,30.14,West,270,0.0,8.0,49,0.00,,,0.00,857.00,VWS V14.01,2013-08-26 18:00:00,
2013-08-26 14:05:00,83.5,60.6,30.13,WNW,282,5.0,6.0,46,0.00,,,0.00,859.00,VWS V14.01,2013-08-26 18:05:00,
2013-08-26 14:10:00,83.3,61.6,30.13,North,356,2.0,7.0,48,0.00,,,0.00,859.00,VWS V14.01,2013-08-26 18:10:00,
2013-08-26 14:15:00,83.3,61.6,30.13,WNW,289,0.0,6.0,48,0.00,,,0.00,846.00,VWS V14.01,2013-08-26 18:15:00,
2013-08-26 14:20:00,83.5,60.6,30.12,WNW,282,5.0,6.0,46,0.00,,,0.00,841.00,VWS V14.01,2013-08-26 18:20:00,
2013-08-26 14:25:00,83.7,60.7,30.12,SW,226,0.0,3.0,46,0.00,,,0.00,834.00,VWS V14.01,2013-08-26 18:25:00,
2013-08-26 14:30:00,84.1,63.5,30.12,SSW,205,0.0,7.0,50,0.00,,,0.00,839.00,VWS V14.01,2013-08-26 18:30:00,
2013-08-26 14:35:00,84.3,63.7,30.12,West,275,1.0,4.0,50,0.00,,,0.00,829.00,VWS V14.01,2013-08-26 18:35:00,
2013-08-26 14:41:00,84.3,61.9,30.12,West,264,0.0,6.0,47,0.00,,,0.00,823.00,VWS V14.01,2013-08-26 18:41:00,
2013-08-26 14:46:00,84.5,62.7,30.12,SSW,213,0.0,0.0,48,0.00,,,0.00,811.00,VWS V14.01,2013-08-26 18:46:00,
2013-08-26 14:51:00,84.9,61.2,30.10,SSW,205,1.0,6.0,45,0.00,,,0.00,806.00,VWS V14.01,2013-08-26 18:51:00,
2013-08-26 14:56:00,84.7,62.9,30.10,West,278,2.0,5.0,48,0.00,,,0.00,804.00,VWS V14.01,2013-08-26 18:56:00,
2013-08-26 15:01:00,84.5,60.2,30.10,WSW,241,3.0,5.0,44,0.00,,,0.00,783.00,VWS V14.01,2013-08-26 19:01:00,
2013-08-26 15:06:00,84.5,62.7,30.10,West,263,0.0,3.0,48,0.00,,,0.00,788.00,VWS V14.01,2013-08-26 19:06:00,
2013-08-26 15:11:00,84.5,63.3,30.10,WSW,243,1.0,3.0,49,0.00,,,0.00,779.00,VWS V14.01,2013-08-26 19:11:00,
2013-08-26 15:16:00,84.5,60.8,30.10,WSW,241,2.0,10.0,45,0.00,,,0.00,765.00,VWS V14.01,2013-08-26 19:16:00,
2013-08-26 15:21:00,84.9,60.6,30.09,SW,229,2.0,10.0,44,0.00,,,0.00,760.00,VWS V14.01,2013-08-26 19:21:00,
2013-08-26 15:26:00,85.3,62.2,30.09,West,263,0.0,3.0,46,0.00,,,0.00,751.00,VWS V14.01,2013-08-26 19:26:00,
2013-08-26 15:31:00,85.7,61.9,30.09,SSW,209,0.0,3.0,45,0.00,,,0.00,741.00,VWS V14.01,2013-08-26 19:31:00,
2013-08-26 15:36:00,86.2,64.2,30.08,NW,322,2.0,2.0,48,0.00,,,0.00,734.00,VWS V14.01,2013-08-26 19:36:00,
2013-08-26 15:41:00,86.0,62.2,30.08,WNW,291,1.0,5.0,45,0.00,,,0.00,721.00,VWS V14.01,2013-08-26 19:41:00,
2013-08-26 15:47:00,86.0,59.6,30.08,SW,227,1.0,3.0,41,0.00,,,0.00,706.00,VWS V14.01,2013-08-26 19:47:00,
2013-08-26 15:52:00,86.4,63.8,30.08,SW,234,0.0,3.0,47,0.00,,,0.00,693.00,VWS V14.01,2013-08-26 19:52:00,
2013-08-26 15:57:00,86.4,61.3,30.08,SW,217,0.0,5.0,43,0.00,,,0.00,679.00,VWS V14.01,2013-08-26 19:57:00,
2013-08-26 16:02:00,86.2,60.4,30.08,SW,220,0.0,5.0,42,0.00,,,0.00,670.00,VWS V14.01,2013-08-26 20:02:00,
2013-08-26 16:07:00,86.0,63.4,30.07,WSW,246,5.0,6.0,47,0.00,,,0.00,662.00,VWS V14.01,2013-08-26 20:07:00,
2013-08-26 16:12:00,85.7,60.7,30.07,SW,224,2.0,6.0,43,0.00,,,0.00,648.00,VWS V14.01,2013-08-26 20:12:00,
2013-08-26 16:17:00,86.0,62.2,30.07,West,272,1.0,3.0,45,0.00,,,0.00,639.00,VWS V14.01,2013-08-26 20:17:00,
2013-08-26 16:22:00,86.0,59.6,30.07,WNW,301,1.0,5.0,41,0.00,,,0.00,623.00,VWS V14.01,2013-08-26 20:22:00,
2013-08-26 16:27:00,86.2,61.8,30.07,WSW,257,0.0,6.0,44,0.00,,,0.00,612.00,VWS V14.01,2013-08-26 20:27:00,
2013-08-26 16:32:00,86.6,63.4,30.06,North,350,0.0,6.0,46,0.00,,,0.00,598.00,VWS V14.01,2013-08-26 20:32:00,
2013-08-26 16:37:00,87.0,62.5,30.06,WNW,289,4.0,6.0,44,0.00,,,0.00,570.00,VWS V14.01,2013-08-26 20:37:00,
2013-08-26 16:42:00,86.8,62.3,30.06,NW,313,0.0,6.0,44,0.00,,,0.00,556.00,VWS V14.01,2013-08-26 20:42:00,
2013-08-26 16:48:00,86.8,61.0,30.05,WSW,246,2.0,4.0,42,0.00,,,0.00,538.00,VWS V14.01,2013-08-26 20:48:00,
2013-08-26 16:53:00,86.4,61.9,30.05,SSW,205,0.0,5.0,44,0.00,,,0.00,510.00,VWS V14.01,2013-08-26 20:53:00,
2013-08-26 16:58:00,86.4,64.4,30.05,WNW,284,0.0,5.0,48,0.00,,,0.00,487.00,VWS V14.01,2013-08-26 20:58:00,
2013-08-26 17:03:00,86.2,64.8,30.05,WSW,258,0.0,5.0,49,0.00,,,0.00,472.00,VWS V14.01,2013-08-26 21:03:00,
2013-08-26 17:08:00,86.0,60.9,30.05,WNW,282,2.0,7.0,43,0.00,,,0.00,459.00,VWS V14.01,2013-08-26 21:08:00,
2013-08-26 17:13:00,86.0,62.2,30.05,West,274,1.0,7.0,45,0.00,,,0.00,433.00,VWS V14.01,2013-08-26 21:13:00,
2013-08-26 17:18:00,86.0,62.8,30.04,WSW,240,2.0,3.0,46,0.00,,,0.00,426.00,VWS V14.01,2013-08-26 21:18:00,
2013-08-26 17:23:00,86.2,64.8,30.04,WSW,247,0.0,3.0,49,0.00,,,0.00,417.00,VWS V14.01,2013-08-26 21:23:00,
2013-08-26 17:28:00,86.4,61.9,30.04,WNW,298,0.0,5.0,44,0.00,,,0.00,408.00,VWS V14.01,2013-08-26 21:28:00,
2013-08-26 17:33:00,86.0,60.9,30.03,WNW,294,0.0,0.0,43,0.00,,,0.00,347.00,VWS V14.01,2013-08-26 21:33:00,
2013-08-26 17:38:00,85.7,62.6,30.03,WSW,237,1.0,4.0,46,0.00,,,0.00,352.00,VWS V14.01,2013-08-26 21:38:00,
2013-08-26 17:43:00,85.3,62.2,30.03,WNW,284,2.0,3.0,46,0.00,,,0.00,345.00,VWS V14.01,2013-08-26 21:43:00,
2013-08-26 17:48:00,85.3,60.9,30.03,West,278,0.0,5.0,44,0.00,,,0.00,322.00,VWS V14.01,2013-08-26 21:48:00,
2013-08-26 17:54:00,85.3,61.6,30.03,WNW,292,0.0,4.0,45,0.00,,,0.00,329.00,VWS V14.01,2013-08-26 21:54:00,
2013-08-26 17:59:00,85.3,60.9,30.03,West,278,2.0,6.0,44,0.00,,,0.00,306.00,VWS V14.01,2013-08-26 21:59:00,
2013-08-26 18:04:00,85.3,61.6,30.03,WNW,291,0.0,0.0,45,0.00,,,0.00,294.00,VWS V14.01,2013-08-26 22:04:00,
2013-08-26 18:09:00,85.1,63.2,30.03,WNW,289,3.0,5.0,48,0.00,,,0.00,292.00,VWS V14.01,2013-08-26 22:09:00,
2013-08-26 18:14:00,84.9,62.4,30.03,WNW,296,0.0,1.0,47,0.00,,,0.00,271.00,VWS V14.01,2013-08-26 22:14:00,
2013-08-26 18:19:00,84.9,61.8,30.03,WNW,291,2.0,5.0,46,0.00,,,0.00,257.00,VWS V14.01,2013-08-26 22:19:00,
2013-08-26 18:24:00,84.5,61.5,30.03,West,264,6.0,7.0,46,0.00,,,0.00,252.00,VWS V14.01,2013-08-26 22:24:00,
2013-08-26 18:29:00,83.9,62.7,30.03,NW,325,0.0,8.0,49,0.00,,,0.00,192.00,VWS V14.01,2013-08-26 22:29:00,
2013-08-26 18:34:00,83.7,62.0,30.02,WNW,287,2.0,7.0,48,0.00,,,0.00,202.00,VWS V14.01,2013-08-26 22:34:00,
2013-08-26 18:39:00,83.7,62.0,30.02,North,349,2.0,8.0,48,0.00,,,0.00,165.00,VWS V14.01,2013-08-26 22:39:00,
2013-08-26 18:44:00,83.7,63.1,30.02,NNW,347,0.0,2.0,50,0.00,,,0.00,127.00,VWS V14.01,2013-08-26 22:44:00,
2013-08-26 18:49:00,83.3,62.7,30.02,West,274,0.0,2.0,50,0.00,,,0.00,104.00,VWS V14.01,2013-08-26 22:49:00,
2013-08-26 18:55:00,82.8,61.7,30.02,NNW,347,1.0,3.0,49,0.00,,,0.00,65.00,VWS V14.01,2013-08-26 22:55:00,
2013-08-26 19:00:00,82.4,62.5,30.02,NW,305,0.0,3.0,51,0.00,,,0.00,65.00,VWS V14.01,2013-08-26 23:00:00,
2013-08-26 19:05:00,82.0,63.2,30.02,NW,313,1.0,2.0,53,0.00,,,0.00,65.00,VWS V14.01,2013-08-26 23:05:00,
2013-08-26 19:10:00,81.2,64.0,30.02,NW,304,0.0,2.0,56,0.00,,,0.00,46.00,VWS V14.01,2013-08-26 23:10:00,
2013-08-26 19:15:00,80.6,63.5,30.02,NW,304,0.0,0.0,56,0.00,,,0.00,40.00,VWS V14.01,2013-08-26 23:15:00,
2013-08-26 19:20:00,80.1,63.5,30.03,WNW,302,0.0,4.0,57,0.00,,,0.00,37.00,VWS V14.01,2013-08-26 23:20:00,
2013-08-26 19:25:00,79.5,63.4,30.03,WNW,302,0.0,0.0,58,0.00,,,0.00,32.00,VWS V14.01,2013-08-26 23:25:00,
2013-08-26 19:30:00,78.8,64.2,30.03,WNW,302,0.0,0.0,61,0.00,,,0.00,28.00,VWS V14.01,2013-08-26 23:30:00,
2013-08-26 19:35:00,78.2,64.6,30.03,WNW,302,0.0,0.0,63,0.00,,,0.00,23.00,VWS V14.01,2013-08-26 23:35:00,
2013-08-26 19:40:00,77.8,64.7,30.03,WNW,302,0.0,0.0,64,0.00,,,0.00,19.00,VWS V14.01,2013-08-26 23:40:00,
2013-08-26 19:45:00,76.7,64.1,30.03,WNW,302,0.0,0.0,65,0.00,,,0.00,14.00,VWS V14.01,2013-08-26 23:45:00,
2013-08-26 19:50:00,75.8,63.6,30.03,WNW,302,0.0,0.0,66,0.00,,,0.00,11.00,VWS V14.01,2013-08-26 23:50:00,
2013-08-26 19:55:00,75.5,63.8,30.03,WNW,302,0.0,0.0,67,0.00,,,0.00,7.00,VWS V14.01,2013-08-26 23:55:00,
2013-08-26 20:01:00,74.8,64.0,30.03,WNW,302,0.0,0.0,69,0.00,,,0.00,0.00,VWS V14.01,2013-08-27 00:01:00,
2013-08-26 20:06:00,74.3,63.9,30.03,WNW,302,0.0,0.0,70,0.00,,,0.00,0.00,VWS V14.01,2013-08-27 00:06:00,
2013-08-26 20:11:00,73.9,63.5,30.03,WNW,302,0.0,0.0,70,0.00,,,0.00,0.00,VWS V14.01,2013-08-27 00:11:00,
2013-08-26 20:16:00,73.7,64.1,30.03,WNW,302,0.0,0.0,72,0.00,,,0.00,0.00,VWS V14.01,2013-08-27 00:16:00,
2013-08-26 20:21:00,73.4,64.6,30.05,WNW,302,0.0,1.0,74,0.00,,,0.00,0.00,VWS V14.01,2013-08-27 00:21:00,
2013-08-26 20:26:00,72.5,64.5,30.05,SW,229,0.0,3.0,76,0.00,,,0.00,0.00,VWS V14.01,2013-08-27 00:26:00,
2013-08-26 20:31:00,72.2,64.6,30.05,SW,229,0.0,3.0,77,0.00,,,0.00,0.00,VWS V14.01,2013-08-27 00:31:00,
2013-08-26 20:36:00,72.0,64.4,30.05,SW,229,0.0,0.0,77,0.00,,,0.00,0.00,VWS V14.01,2013-08-27 00:36:00,
2013-08-26 20:41:00,71.8,64.2,30.05,SE,126,0.0,0.0,77,0.00,,,0.00,0.00,VWS V14.01,2013-08-27 00:41:00,
2013-08-26 20:46:00,71.5,64.3,30.05,SE,126,0.0,0.0,78,0.00,,,0.00,0.00,VWS V14.01,2013-08-27 00:46:00,
2013-08-26 20:51:00,71.1,63.9,30.06,SE,126,0.0,0.0,78,0.00,,,0.00,0.00,VWS V14.01,2013-08-27 00:51:00,
2013-08-26 20:57:00,70.6,64.1,30.06,SE,126,0.0,0.0,80,0.00,,,0.00,0.00,VWS V14.01,2013-08-27 00:57:00,
2013-08-26 21:02:00,70.5,63.7,30.06,SE,144,0.0,0.0,79,0.00,,,0.00,0.00,VWS V14.01,2013-08-27 01:02:00,
2013-08-26 21:07:00,70.3,63.5,30.06,West,263,0.0,0.0,79,0.00,,,0.00,0.00,VWS V14.01,2013-08-27 01:07:00,
2013-08-26 21:12:00,70.3,63.1,30.06,SW,236,2.0,5.0,78,0.00,,,0.00,0.00,VWS V14.01,2013-08-27 01:12:00,
2013-08-26 21:17:00,70.6,63.0,30.06,SSW,210,0.0,0.0,77,0.00,,,0.00,0.00,VWS V14.01,2013-08-27 01:17:00,
2013-08-26 21:22:00,70.5,63.0,30.05,SSW,210,0.0,0.0,77,0.00,,,0.00,0.00,VWS V14.01,2013-08-27 01:22:00,
2013-08-26 21:27:00,70.5,62.6,30.05,SSW,210,0.0,0.0,76,0.00,,,0.00,0.00,VWS V14.01,2013-08-27 01:27:00,
2013-08-26 21:32:00,70.3,62.8,30.05,SSW,210,0.0,0.0,77,0.00,,,0.00,0.00,VWS V14.01,2013-08-27 01:32:00,
2013-08-26 21:37:00,69.9,62.4,30.05,WSW,241,0.0,2.0,77,0.00,,,0.00,0.00,VWS V14.01,2013-08-27 01:37:00,
2013-08-26 21:42:00,70.1,62.6,30.05,SW,230,0.0,3.0,77,0.00,,,0.00,0.00,VWS V14.01,2013-08-27 01:42:00,
2013-08-26 21:47:00,69.9,62.7,30.05,SW,230,0.0,0.0,78,0.00,,,0.00,0.00,VWS V14.01,2013-08-27 01:47:00,
2013-08-26 21:52:00,69.8,62.6,30.05,SW,230,0.0,0.0,78,0.00,,,0.00,0.00,VWS V14.01,2013-08-27 01:52:00,
2013-08-26 21:57:00,69.4,63.0,30.05,SW,230,0.0,0.0,80,0.00,,,0.00,0.00,VWS V14.01,2013-08-27 01:57:00,
2013-08-26 22:03:00,69.3,62.9,30.05,SW,230,0.0,0.0,80,0.00,,,0.00,0.00,VWS V14.01,2013-08-27 02:03:00,
2013-08-26 22:08:00,69.1,62.7,30.05,SW,229,0.0,0.0,80,0.00,,,0.00,0.00,VWS V14.01,2013-08-27 02:08:00,
2013-08-26 22:13:00,68.9,62.8,30.05,SW,229,0.0,0.0,81,0.00,,,0.00,0.00,VWS V14.01,2013-08-27 02:13:00,
2013-08-26 22:18:00,68.6,62.9,30.06,SW,229,0.0,0.0,82,0.00,,,0.00,0.00,VWS V14.01,2013-08-27 02:18:00,
2013-08-26 22:23:00,68.4,62.3,30.06,SW,229,0.0,0.0,81,0.00,,,0.00,0.00,VWS V14.01,2013-08-27 02:23:00,
2013-08-26 22:28:00,68.3,62.2,30.06,SW,229,0.0,0.0,81,0.00,,,0.00,0.00,VWS V14.01,2013-08-27 02:28:00,
2013-08-26 22:33:00,67.9,61.9,30.06,SW,229,0.0,0.0,81,0.00,,,0.00,0.00,VWS V14.01,2013-08-27 02:33:00,
2013-08-26 22:38:00,67.6,61.9,30.06,SW,229,0.0,0.0,82,0.00,,,0.00,0.00,VWS V14.01,2013-08-27 02:38:00,
2013-08-26 22:43:00,67.4,62.1,30.06,SW,229,0.0,0.0,83,0.00,,,0.00,0.00,VWS V14.01,2013-08-27 02:43:00,
2013-08-26 22:48:00,67.1,61.8,30.05,SW,229,0.0,0.0,83,0.00,,,0.00,0.00,VWS V14.01,2013-08-27 02:48:00,
2013-08-26 22:53:00,67.1,61.8,30.05,SW,229,0.0,0.0,83,0.00,,,0.00,0.00,VWS V14.01,2013-08-27 02:53:00,
2013-08-26 22:58:00,66.9,61.6,30.05,SW,229,0.0,0.0,83,0.00,,,0.00,0.00,VWS V14.01,2013-08-27 02:58:00,
2013-08-26 23:03:00,66.9,61.6,30.05,SW,229,0.0,0.0,83,0.00,,,0.00,0.00,VWS V14.01,2013-08-27 03:03:00,
2013-08-26 23:09:00,66.8,61.5,30.05,SW,229,0.0,0.0,83,0.00,,,0.00,0.00,VWS V14.01,2013-08-27 03:09:00,
2013-08-26 23:14:00,66.6,61.6,30.05,SW,229,0.0,0.0,84,0.00,,,0.00,0.00,VWS V14.01,2013-08-27 03:14:00,
2013-08-26 23:19:00,66.4,61.8,30.05,SW,229,0.0,0.0,85,0.00,,,0.00,0.00,VWS V14.01,2013-08-27 03:19:00,
2013-08-26 23:24:00,66.1,61.5,30.05,SW,229,0.0,0.0,85,0.00,,,0.00,0.00,VWS V14.01,2013-08-27 03:24:00,
2013-08-26 23:29:00,65.9,61.6,30.05,SW,229,0.0,0.0,86,0.00,,,0.00,0.00,VWS V14.01,2013-08-27 03:29:00,
2013-08-26 23:34:00,65.9,61.6,30.04,SW,229,0.0,0.0,86,0.00,,,0.00,0.00,VWS V14.01,2013-08-27 03:34:00,
2013-08-26 23:39:00,65.8,61.5,30.04,WSW,247,0.0,2.0,86,0.00,,,0.00,0.00,VWS V14.01,2013-08-27 03:39:00,
2013-08-26 23:44:00,65.6,61.3,30.04,WSW,247,0.0,0.0,86,0.00,,,0.00,0.00,VWS V14.01,2013-08-27 03:44:00,
2013-08-26 23:49:00,65.4,61.4,30.03,WSW,247,0.0,0.0,87,0.00,,,0.00,0.00,VWS V14.01,2013-08-27 03:49:00,
2013-08-26 23:54:00,65.4,61.4,30.03,SSW,203,0.0,2.0,87,0.00,,,0.00,0.00,VWS V14.01,2013-08-27 03:54:00,
2013-08-26 23:59:00,65.4,61.1,30.03,West,264,0.0,3.0,86,0.00,,,0.00,0.00,VWS V14.01,2013-08-27 03:59:00,